DELTA 1 DEB, 9975

Orbit data source: Space-Track

DELTA 1 DEB, 9975 is space debris in SSO originally from a launch on Tue, 06 Nov 1973 UTC launched from the Air Force Western Test Range (AFWTR). Debris objects in space refer to the collection of defunct objects orbiting the Earth. Examples of debris include non-operational satellites, rocket bodies, and fragments generated from explosions, collisions, or faulty payload assembly.

Loading next visibility...
Identifier
9975, 1973-086GE
Orbit
SSO
Country
Flag of USUS
Related business
Manufacturer
Unknown
Mission
Spacecraft
Bus & Motor
Unknown
Mass
Unknown
Launch date (UTC)
1973-11-06 (52 years ago)
Launch vehicle
Unknown
Launch site
Air Force Western Test Range (AFWTR)
Object type
Payload
Rocket body
Debris
Shape & HBR
Unknown shape, 0.1 m
Radar Cross Section
Small (<0.1 m²)

Expand to show TLE details & history
Last TLE update: 22 hours ago

TLE from 22 hours ago
0 DELTA 1 DEB
1  9975U 73086GE  25353.36083258  .00000272  00000-0  22433-2 0  9994
2  9975 102.4758 310.5317 0086723 186.1061 329.3147 12.44061107 70954
Epoch: 2025-12-19T08:39Z
TLE epoch observation values (Epoch: 2025-12-19T08:39:35.934Z)
Latitude
24.48638°
Longitude
-81.81644°
Altitude
1,433.53 km
Speed
7.173 km/s
True Right ascension
09h 05m 08s
True Declination
24° 22' 05"
Sunlit
Object was in full shadow at epoch
Visualization orbit readout
Latitude
Unknown
Longitude
Unknown
Altitude
Unknown
Speed
Unknown
Apparent Right ascension
Unknown
Apparent Declination
Unknown
Sunlit
N/A
Visualization observer readout
Local Sidereal Time
05:47:42
Azimuth
Unknown
Elevation
Unknown
Doppler factor
Unknown
Orbital elements
Apogee altitude
1,555.242 km
Perigee altitude
1,418.823 km
Semi-major axis
7,865.17 km
Eccentricity
0.00867
Inclination
102.4758°
RAAN
310.5317°
Arg. of periapsis
186.1061°
True anomaly
328.80279°
Mean anomaly
329.3147°
Eccentric anomaly
329.05923°
Mean motion
3.11158 °/min
Orbital period
115.7 mins
BSTAR
0.0022433
Loading maneuver chart data...
Computing Atmospheric mass density...
Loading historical data...
Loading historical data...
Loading historical data...
Loading historical data...
Loading historical data...
Loading historical data...
Loading historical data...

Documentation

Showing up to 5 results
|